Weather in Morskoy

Russia / Volgograd Oblast     48°05′34″N   42°35′24″E
temp.,
°C
wind,
m/s
gust,
m/s
humid.,
%
clouds,
%
prec.,
mm/h
press.,
hPa
HPBL,
m
1 march, mon
mon100:000wnw359791 0.0 1019154
03:00+1wnw259893 0.4 1020271
06:00+1w3598100 0.3 1021270
09:00+1w2497100 0.7 1023169
12:00+1nnw2396100 0.3 1024210
15:00+3ene338098 0.4 1025494
18:00+1ne239088 0.1 1026121
21:000nne228889 0.2 1027112
2 march, tue
tue200:00−2n228467 0.0 102834
03:00−2w228461 0.0 102756
06:00−2wsw36870 0.0 1026220
09:00+1wsw697340 0.0 1026777
12:00+3wsw8116287 0.0 10231200
15:00+5wsw9135989 0.0 10201210
18:00+2wsw71471100 0.0 1017824
21:00+1wsw91676100 0.0 1016755
3 march, wed
wed300:00+2wsw91681100 0.0 1013723
03:00+1w91497100 0.4 1012670
06:00+1wnw61097100 1.6 1011485
09:00+1nw61097100 3.1 1013569
12:00+3nw796599 0.1 10151215
15:00+3nw8106397 0.1 10161487
18:00+1nw61166100 0.2 1018782
21:00−1nw5117284 0.3 1021760
4 march, thu
thu400:00−2nw59710 0.0 1022656
03:00−2wnw47730 0.0 1023280
06:00−2wsw59760 0.0 1023314
09:00+2wsw811640 0.0 1023880
12:00+5wsw811520 0.0 10211224
15:00+6wsw912500 0.0 10201194
18:00+2wsw614620 0.0 1018483
21:00+1sw615750 0.0 1018481
5 march, fri
fri500:000sw715750 0.0 1017490
03:000sw715821 0.0 1017551
06:00+1sw7159192 0.0 1016547
09:00+4wsw10157574 0.0 1017794
12:00+7wsw913620 0.0 10161053
15:00+8wsw912605 0.0 10161274
18:00+6wsw5117195 0.0 1016502
21:00+5sw487997 0.0 1017284